Starlink 4408

operational
NORAD ID: 53206 Int'l Des: 2022-084 Owner: SPXS Country: US Constellation: starlink
LEOCIRCULARRETROGRADESSO

About Starlink 4408

Description loading...

Live Position

Loading 3D Globe...

Upcoming Passes

Altitude History

Altitude vs Time

uPlot chart will show altitude changes over time

Two-Line Element Set

1 53206U 22084T 26066.12881870 .00002362 00000-0 16791-3 0 9997
2 53206 97.6054 128.6805 0001335 115.7591 244.3774 15.05641836198996
Epoch: Mar 7, 2026 • Age: 15 hours

Current Status

Altitude 561.4 km
Velocity 7.59 km/s
Sub-Earth Point 74.30°N, 48.72°W
Launch Date Jul 22, 2022
Age 3.6 years
Type internet

Technical Details

Classification Payload
Mass 297.00 kg
Dry Mass 275.00 kg
Total Mass 297.00 kg
Length 0.20 m
Diameter 2.80 m
Span 9.00 m
Shape Box + pan
Manufacturer SPXS
Bus Type Starlink
Phase Status In Orbit
Owner/State SPXS/US

Large Constellations

Loading constellations...